CAPE
0 0 0 0 0 0 0 0 0 0 0 0 0 0 0 0 0 0 0 0 0 0 0 0 0 0 0 0 0 0 0 0 0 0 0 1 2 1 0 0 0 0 0
0 0 0 0 0 0 0 0 0 0 0 0 0 0 3 0 0 0 0 0 0 0 0 0 0 0 0 0 0 0 0 0 1 0 0 0 0 0 0 0 0 0 0
0 0 0 0 0 0 0 0 0 0 0 0 0 1 0 0 0 0 0 0 0 0 0 0 0 0 0 0 0 0 0 0 0 0 0 0 0 0 0 0 0 0 0
0 0 0 0 0 0 0 0 0 0 0 0 0 1 1 1 0 0 0 0 0 0 0 0 0 0 0 0 0 0 0 0 0 1 0 0 0 0 0 0 0 0 0
0 0 0 0 0 0 0 0 0 0 0 0 0 3 0 1 2 0 0 0 0 0 0 0 0 0 0 0 0 0 1 1 1 3 1 1 1 0 0 0 0 0 0
0 0 0 0 0 0 0 0 0 0 0 0 0 4 1 0 0 0 0 0 0 0 0 0 0 0 0 0 0 0 0 4 3 4 2 3 1 1 0 0 0 0 0
0 0 0 0 0 0 0 0 0 0 0 0 0 3 0 0 2 0 0 0 0 0 0 0 0 0 0 0 0 0 0 0 3 1 2 2 2 4 2 1 0 0 0
0 0 0 0 0 0 0 0 0 0 0 0 0 4 1 0 0 0 0 0 0 0 0 0 0 0 0 0 0 0 0 0 0 1 3 5 5 4 4 3 3 2 2
0 0 0 0 0 0 0 0 0 0 0 0 0 0 1 0 0 0 0 0 0 0 0 0 0 0 0 0 0 0 0 0 0 4 13 9 6 9 7 9 11 10 5
0 0 0 0 0 0 0 0 0 0 0 0 0 0 0 0 0 0 0 0 0 0 0 0 0 0 0 0 0 0 0 0 0 0 0 13 15 12 17 12 12 16 10
0 0 0 0 0 0 0 0 0 0 0 0 0 0 0 0 0 6 2 0 0 0 0 0 0 0 0 0 0 0 0 0 0 0 0 0 24 19 9 22 21 20 20
0 0 0 0 0 0 0 0 0 0 0 0 0 0 0 0 0 0 0 0 0 0 0 0 0 0 0 0 0 0 0 0 0 0 0 0 13 27 8 13 30 27 22
0 0 0 0 0 0 0 0 0 0 0 0 0 0 0 0 0 0 0 0 0 0 0 0 0 0 0 0 0 0 0 0 0 0 0 0 7 27 10 1 18 19 24
0 0 0 0 0 0 0 0 0 0 0 0 0 0 0 0 0 0 0 0 1 1 0 0 0 0 0 0 0 0 0 0 0 0 0 2 6 19 7 0 1 8 23
0 0 0 0 0 0 0 0 1 1 1 0 0 0 0 0 0 0 0 0 2 3 2 0 0 0 0 0 0 0 0 0 0 0 0 4 8 11 11 13 4 14 20
2 3 5 1 0 0 0 0 3 3 2 2 1 0 0 0 0 0 0 0 0 4 2 0 0 0 0 0 0 0 0 0 0 0 1 2 2 5 15 4 15 21 15
0 3 6 9 2 0 0 0 0 2 0 0 1 2 1 1 0 0 0 0 0 0 2 1 0 0 0 0 0 4 1 0 0 0 0 2 2 8 9 0 13 11 17
0 0 8 14 9 1 2 3 2 3 2 1 1 1 2 0 0 0 0 0 1 1 2 1 0 0 2 6 2 2 3 1 1 0 2 2 5 9 1 1 9 3 5
4 6 15 10 5 3 2 3 3 2 1 0 0 0 0 0 0 1 1 1 1 1 0 1 0 4 7 6 7 3 3 3 2 1 2 2 0 9 3 7 7 2 1
0 0 2 5 11 10 11 10 6 2 1 0 0 0 0 0 0 1 1 0 0 0 0 0 0 1 4 6 2 1 4 4 4 1 0 0 1 2 2 2 1 2 0
0 0 0 2 5 7 5 11 7 4 3 0 0 0 0 0 0 0 0 0 0 0 0 0 0 1 1 3 0 3 3 2 3 1 1 0 0 0 0 0 0 0 0
0 0 0 0 0 0 0 0 0 0 0 0 1 0 0 0 0 0 0 0 0 0 0 0 0 0 0 0 4 1 1 1 0 1 3 3 0 0 0 0 0 0 0
0 0 0 0 0 0 0 0 0 0 0 0 0 0 0 1 2 0 2 1 1 1 0 0 0 0 0 0 0 2 2 2 1 0 2 1 1 1 0 0 0 0 0
0 0 0 0 0 0 1 0 0 0 0 1 2 1 1 2 2 1 0 0 2 1 0 0 0 0 0 0 0 0 0 0 0 0 1 0 0 0 0 0 0 1 0
0 0 0 0 0 0 1 0 1 0 0 2 3 1 1 1 1 1 0 0 1 2 1 0 0 0 0 0 0 0 2 2 4 0 1 0 0 0 0 0 0 0 0
0 0 0 0 1 0 1 1 1 0 0 0 1 2 1 1 2 1 0 0 0 2 1 0 0 0 0 1 0 0 0 0 1 0 0 0 0 0 0 0 0 0 0
CIN
0 0 0 0 0 0 0 0 0 0 0 0 0 0 0 0 0 0 0 0 0 0 0 0 0 0 0 0 0 0 0 0 0 0 0 0 0 0 0 0 0 -1 0
0 0 0 0 0 0 0 0 0 0 0 0 0 0 -1 -1 0 0 0 0 0 0 0 0 0 0 0 0 0 0 0 0 0 0 0 0 0 0 0 0 0 0 0
0 0 0 0 0 0 0 0 0 0 0 0 0 -1 -1 0 0 0 0 0 0 0 0 0 0 0 0 0 0 0 0 0 0 0 0 0 0 0 0 0 0 0 0
0 0 0 0 0 0 0 0 0 0 0 0 0 -1 -2 -2 0 0 0 0 0 0 0 0 0 0 0 0 0 0 0 0 0 -1 0 0 0 0 0 0 0 0 0
0 0 0 0 0 0 0 0 0 0 0 0 0 -2 -3 -3 -8 0 0 0 0 0 0 0 0 0 0 0 0 0 0 -1 -1 -1 -1 -1 0 0 0 0 0 0 0
0 0 0 0 0 0 0 0 0 0 0 0 0 -2 -7 0 0 0 0 0 0 0 0 0 0 0 0 0 0 0 0 -1 -1 0 0 -1 0 0 -1 -1 0 0 0
0 0 0 0 0 0 0 0 0 0 0 0 0 -2 0 0 -2 -2 0 0 0 0 0 0 0 0 0 0 0 0 0 0 -1 -1 0 -1 -1 0 -1 -1 -1 0 0
0 0 0 0 0 0 0 0 0 0 0 0 0 -3 -1 0 0 0 0 0 0 0 0 0 0 0 0 0 0 0 0 0 0 -1 0 0 -1 0 0 -1 -1 -1 0
0 0 0 0 0 0 0 0 0 0 0 0 0 0 0 0 0 0 0 0 0 0 0 0 0 0 0 0 0 0 0 0 0 -1 -1 -1 -1 -1 -1 -1 -1 -1 -1
0 0 0 0 0 0 0 0 0 0 0 0 0 0 0 0 0 0 0 0 0 0 0 0 0 0 0 0 0 0 0 0 0 0 0 -1 -1 -1 -1 -1 -1 -1 -1
0 0 0 0 0 0 0 0 0 0 0 0 0 0 0 0 0 -1 0 0 0 0 0 0 0 0 0 0 0 0 0 0 0 0 0 -1 0 0 -1 -1 0 -1 -1
0 0 0 0 0 0 0 0 0 0 0 0 0 0 0 0 0 0 0 0 0 0 0 0 0 0 0 0 0 0 0 0 0 0 0 0 -3 0 0 0 -1 -1 -1
0 0 0 0 0 0 0 0 0 0 0 0 0 0 0 0 0 0 0 0 0 0 0 0 0 0 0 0 0 0 0 0 0 0 0 0 -1 0 0 0 0 -1 -1
0 0 0 0 0 0 0 0 0 0 0 0 0 0 0 0 0 0 0 0 0 0 0 0 0 0 0 0 0 0 0 0 0 0 0 0 0 0 -1 0 0 -1 -1
-1 0 0 0 0 0 0 0 0 -1 -1 0 0 0 0 0 0 0 0 0 -3 -2 -2 -1 0 0 0 0 0 0 0 0 0 0 0 0 0 0 0 0 0 0 0
-5 -5 -10 -6 0 0 0 0 0 -3 -2 -2 -1 -1 -2 -1 -1 0 0 0 -3 0 0 0 0 0 0 0 0 0 0 0 0 0 0 0 0 0 0 0 0 0 0
-2 -5 -9 -11 -20 0 0 -5 -1 -2 -4 -3 -1 -1 -1 -1 0 0 0 0 0 -1 0 0 0 0 0 0 0 0 0 0 0 0 0 0 -1 0 0 -1 0 0 0
0 0 -6 -9 -17 -20 -11 -6 -4 -8 -1 -1 -1 0 0 0 0 0 0 0 0 0 0 0 0 0 0 0 0 0 0 0 0 0 0 0 0 0 0 0 0 0 0
-5 -7 -6 -12 -20 -16 -13 -14 -7 -2 -5 0 0 -1 0 0 0 0 0 0 0 0 0 0 0 0 0 0 0 0 0 0 0 0 0 0 0 0 -1 0 0 0 0
-6 -5 -7 -8 -11 -12 -10 -15 -6 -4 -8 0 0 0 0 0 0 0 0 0 0 0 0 0 0 0 0 0 0 0 0 0 0 0 0 0 0 0 0 0 -1 0 0
0 0 -3 -6 -2 -4 -5 -6 -10 -4 -6 -2 0 0 0 0 0 0 0 0 0 0 0 0 0 0 0 0 0 0 0 0 0 0 0 0 0 0 0 0 0 0 0
0 0 0 0 0 0 0 0 0 0 -8 0 -36 0 0 0 0 0 0 0 0 0 0 0 0 0 0 0 0 0 0 0 0 0 0 0 0 0 0 0 0 0 0
0 0 0 0 0 0 0 0 0 0 0 0 0 0 0 0 0 0 0 0 0 0 0 0 0 0 0 0 0 0 0 0 0 0 0 0 0 0 0 0 0 0 0
0 0 0 0 0 0 0 0 0 0 0 0 0 0 0 0 0 0 0 0 0 0 0 0 0 0 0 0 0 0 0 0 0 0 0 0 0 0 0 0 0 0 0
0 0 0 0 0 0 0 0 0 0 0 0 0 0 0 0 0 0 0 0 0 0 0 0 0 0 0 0 0 0 0 0 0 0 0 0 0 0 0 0 0 0 0
0 0 0 0 0 0 0 0 0 0 0 0 0 0 0 0 0 0 0 0 0 0 0 0 0 0 0 0 0 0 0 0 0 0 0 0 0 0 0 0 0 0 0
Wind_Speed
3 1 2 3 4 3 2 4 7 8 10 10 10 12 12 14 14 14 14 14 13 13 13 14 14 15 15 15 14 14 14 14 15 16 16 17 19 19 20 20 21 22 22
4 1 1 1 0 1 1 3 4 7 8 8 9 10 11 11 12 13 13 13 12 12 12 13 13 13 13 13 12 12 12 13 14 14 15 16 17 17 18 19 19 19 20
8 5 4 4 3 2 3 4 5 6 7 7 8 8 10 11 10 11 13 11 11 11 11 12 13 13 12 11 11 11 11 11 12 12 13 14 15 16 16 17 18 19 19
9 9 8 8 6 6 6 7 7 9 9 9 9 8 10 10 11 11 12 12 10 11 10 10 12 12 11 10 10 9 10 10 10 10 12 13 14 14 15 15 16 17 17
13 13 11 11 9 9 9 8 9 9 9 10 12 12 12 10 11 11 12 11 11 12 11 10 9 9 10 9 9 9 9 9 9 10 11 11 12 13 13 13 14 14 15
15 14 14 12 11 11 11 11 11 10 11 11 13 14 15 13 13 13 11 11 11 11 11 11 9 9 9 9 9 8 7 8 9 8 10 9 10 11 12 13 12 12 13
15 15 16 16 14 14 14 12 13 13 15 14 21 20 19 17 17 15 12 12 12 10 10 9 9 9 10 9 8 8 7 6 7 7 8 8 10 10 11 11 11 12 12
16 16 16 16 16 15 15 14 15 15 15 14 17 19 23 22 17 13 13 12 11 11 11 9 9 9 10 12 10 9 8 8 8 9 8 9 10 10 9 10 8 10 11
15 14 15 15 15 15 15 15 14 14 15 13 12 15 20 21 21 17 11 11 11 11 12 10 9 11 11 12 13 12 11 11 11 11 11 11 11 9 10 9 9 11 10
17 17 16 15 16 16 16 15 15 15 15 16 15 14 15 19 23 24 20 16 13 14 14 15 14 14 13 14 14 14 14 13 13 12 12 13 13 9 11 9 9 10 11
21 20 19 19 19 18 18 17 17 16 16 16 17 18 16 18 19 23 26 25 21 20 19 16 17 16 15 16 16 15 15 14 13 14 14 14 13 10 11 10 8 8 9
19 18 18 19 21 20 20 19 19 18 17 17 16 16 17 18 17 18 19 21 22 25 22 20 18 18 18 18 17 16 15 14 14 14 14 14 14 11 9 10 8 8 5
20 19 18 18 19 19 19 19 20 20 19 19 18 18 17 18 19 20 21 24 25 28 28 22 18 18 19 17 17 15 15 13 13 13 13 13 11 10 9 9 8 6 5
22 21 20 19 19 18 19 19 19 19 19 20 21 20 21 21 22 23 25 27 31 32 30 28 23 21 20 17 17 15 14 13 14 13 13 11 10 9 9 9 8 7 6
26 25 24 23 22 22 22 21 22 22 22 21 21 21 22 22 23 24 25 26 29 34 35 32 28 22 20 19 17 15 16 14 13 13 13 11 10 9 9 8 8 6 5
28 28 27 25 25 24 24 24 25 25 25 24 23 24 24 23 23 23 24 25 24 28 36 31 28 26 21 20 18 17 16 18 18 16 14 11 10 9 8 8 8 6 5
31 30 29 29 27 27 26 27 28 28 29 28 26 26 26 23 25 24 25 25 26 26 31 32 29 25 24 23 20 18 19 18 18 16 14 12 11 10 10 10 9 7 6
32 32 31 29 28 27 28 28 30 29 30 30 29 28 27 26 26 25 25 26 25 26 29 32 30 25 25 23 21 20 21 20 20 19 15 12 12 12 11 12 12 11 10
34 33 32 32 31 29 29 28 29 30 29 29 29 29 28 26 27 26 25 24 25 25 26 29 29 26 24 22 23 23 23 21 21 20 17 14 13 14 12 13 12 12 11
33 33 32 32 30 29 29 28 29 29 29 28 27 26 26 26 26 26 24 25 25 25 26 26 27 26 24 22 23 25 24 22 21 19 17 17 16 13 13 14 14 13 11
28 29 29 30 29 30 29 28 28 28 28 28 27 26 25 25 24 24 25 25 23 24 24 24 25 24 25 25 24 22 23 23 21 19 18 17 15 14 13 13 15 14 13
28 29 30 30 30 29 29 29 28 28 27 26 25 24 24 24 24 24 24 23 22 21 23 23 24 26 24 22 21 23 22 23 25 18 17 18 14 13 12 13 13 14 15
28 28 28 29 29 29 29 29 29 28 27 26 25 24 23 23 21 21 21 20 21 21 22 23 25 23 22 21 20 19 19 21 21 17 16 20 14 13 12 12 12 13 15
29 29 29 28 28 28 28 27 26 24 24 24 23 22 21 21 22 20 20 20 21 22 22 21 20 19 19 16 17 18 17 17 18 17 15 19 15 16 14 13 12 14 13
30 30 29 28 27 27 27 26 25 24 24 24 24 23 22 21 20 19 19 20 21 21 19 18 17 16 15 14 15 14 16 16 20 19 14 18 17 17 16 16 14 13 12
31 29 29 27 26 26 26 24 23 22 22 22 21 20 18 17 17 17 17 16 17 16 14 15 15 15 14 15 15 15 13 15 17 19 15 16 17 17 19 18 15 15 15
Wind_Direction
338 109 109 101 123 105 59 1 350 354 350 358 359 354 357 359 3 8 13 14 17 14 12 13 13 13 14 17 21 23 25 25 23 23 25 23 22 23 22 22 25 25 23
298 265 286 294 120 127 104 357 353 346 349 354 352 354 355 359 360 1 6 7 11 13 12 10 8 10 11 13 17 20 20 19 20 20 20 18 17 19 21 19 21 24 23
295 286 279 282 291 301 320 325 334 339 341 343 342 346 347 349 354 354 352 0 5 8 7 8 6 5 7 10 11 13 13 14 16 18 16 15 13 17 17 16 16 18 20
276 287 288 287 289 297 301 313 315 320 320 325 328 333 337 340 341 344 344 348 354 357 1 3 2 4 4 6 5 7 8 10 14 16 13 12 10 12 11 10 11 14 17
276 280 277 284 285 288 294 294 300 305 310 314 318 322 327 327 332 332 334 336 339 345 350 354 358 0 2 2 1 0 5 11 11 12 9 6 8 8 7 11 11 14 15
272 272 279 275 279 281 284 291 293 297 305 309 313 315 316 320 322 322 323 328 328 331 334 343 347 349 350 350 349 350 355 356 358 357 356 355 357 1 5 5 7 10 13
269 269 275 278 276 277 281 283 289 292 299 304 310 312 312 311 312 311 312 317 319 323 327 327 332 336 339 336 334 334 333 331 333 330 336 338 342 345 345 355 360 2 6
270 267 267 270 272 275 275 277 283 291 292 297 308 312 314 316 305 296 307 310 310 321 321 318 317 319 327 330 325 316 310 305 305 305 308 319 323 326 334 337 353 357 1
265 262 261 263 266 267 268 270 271 272 287 288 285 307 318 317 325 323 307 304 307 310 314 313 308 312 313 314 318 313 301 296 298 301 301 307 310 307 323 325 332 342 353
267 268 261 257 256 264 265 268 269 271 278 284 292 272 288 313 320 320 319 315 306 306 307 311 311 310 306 308 304 303 306 301 301 300 295 296 295 294 310 321 319 327 341
272 271 268 267 267 265 264 267 270 265 270 278 285 297 283 289 296 303 309 312 311 309 307 306 308 308 306 304 304 301 296 296 291 297 294 304 295 283 301 311 316 316 331
268 264 260 264 267 267 266 266 264 263 261 266 271 275 285 298 290 292 291 298 302 309 307 306 305 305 306 304 303 298 294 290 292 293 296 299 297 280 291 305 306 313 319
272 264 260 259 263 261 264 267 266 262 260 259 261 266 271 276 287 294 293 301 302 308 309 305 305 308 308 304 303 297 296 292 294 297 299 297 293 284 294 297 302 298 301
275 275 268 261 259 262 264 266 264 263 263 263 264 267 276 279 284 286 290 298 304 306 308 308 313 310 309 305 305 300 303 300 300 297 304 299 290 284 298 290 292 294 296
281 279 274 271 268 269 270 271 273 273 272 270 269 269 274 279 282 286 289 290 297 303 306 310 312 316 315 314 315 314 310 310 306 304 303 295 291 285 286 291 293 283 281
281 281 279 274 273 272 272 273 276 276 276 277 277 278 279 280 284 287 289 291 292 295 302 311 311 315 318 319 319 320 317 320 316 312 305 295 289 284 286 297 299 287 288
284 283 281 280 277 276 276 276 276 278 278 278 278 281 281 282 287 289 293 294 294 295 297 306 310 312 312 314 318 318 320 321 321 317 306 298 294 292 295 302 304 299 307
285 285 284 282 280 279 281 280 280 281 280 280 280 283 284 287 288 291 293 293 293 295 298 301 309 307 311 315 316 315 319 322 322 323 313 303 301 302 295 301 306 305 311
288 288 287 285 285 285 284 284 285 286 284 283 284 284 286 288 288 291 292 293 295 296 298 301 305 311 314 314 316 319 319 322 321 323 321 310 302 306 299 298 303 304 305
291 290 290 290 290 290 289 288 287 287 287 286 285 285 286 287 288 289 290 293 296 296 300 302 304 308 312 314 315 316 318 322 321 324 323 320 315 305 301 309 314 310 306
300 300 298 295 295 293 292 291 290 289 288 288 287 287 287 289 290 291 293 295 296 299 300 299 306 306 308 310 312 318 320 320 322 322 322 319 316 314 305 301 305 313 314
303 302 301 300 299 299 299 297 295 292 291 290 290 293 295 297 299 301 302 302 300 297 300 300 303 304 305 309 314 316 319 319 319 325 324 321 319 311 306 304 302 303 305
304 304 304 304 302 302 302 300 299 297 296 295 295 295 296 299 300 303 306 307 308 307 305 305 304 304 305 308 315 316 318 319 321 329 331 326 331 321 316 310 305 305 310
302 303 303 304 304 305 306 306 306 304 303 302 302 300 298 299 301 300 302 307 308 312 313 313 311 311 315 316 318 320 322 326 329 331 333 328 334 331 332 329 322 317 315
299 300 303 304 305 305 305 304 304 303 303 304 304 305 303 302 303 305 303 305 310 313 319 320 322 324 326 325 324 330 324 321 322 325 328 331 335 337 340 338 338 335 334
295 298 301 304 307 307 308 306 305 303 303 304 308 309 310 308 309 309 308 308 309 314 323 329 332 332 333 331 331 331 329 323 326 325 329 332 337 339 337 339 339 338 338